Portsmouth, NH

3:53 AM EDT on June 29, 2017 (GMT -0400)
Pease International Tradeport

Weather History for KPSM - December, 2013

Change the Weather History Date:

Wednesday, December 11, 2013

  Actual Average Record
Temperature  
Mean Temperature 25 °F -  
Max Temperature 31 °F 39 °F 62 °F (1979)
Min Temperature 19 °F 24 °F -3 °F (1978)
Degree Days  
Heating Degree Days 40    
Moisture  
Dew Point 13 °F    
Average Humidity 61    
Maximum Humidity 79    
Minimum Humidity 41    
Precipitation  
Precipitation 0.00 in - - ()
Sea Level Pressure  
Sea Level Pressure 30.10 in    
Wind  
Wind Speed 11 mph (WSW)    
Max Wind Speed 16 mph    
Max Gust Speed 23 mph    
Visibility 10 miles    
Events      
Averages and records for this station are not official NWS values.
T = Trace of Precipitation, MM = Missing Value Source: NWS Daily Summary

Daily Weather History Graph

Daily Weather History Graph

Search for Another Location

Airport or City:

Trip Planner

Search our weather history database for the weather conditions in past years. The results will help you decide how hot, cold, wet, or windy it might be!

Date:

Astronomy

Dec. 11, 2013 Rise Set
Actual Time 7:04 AM EST 4:08 PM EST
Civil Twilight 6:32 AM EST 4:40 PM EST
Nautical Twilight 5:56 AM EST 5:16 PM EST
Astronomical Twilight 5:22 AM EST 5:50 PM EST
Moon 12:46 PM EST (12/11) 1:15 AM EST (12/11)
Length of Visible Light 10h 08m
Length of Day
9h 03m
Waxing Gibbous, 71% of the Moon is Illuminated
Dec 11
Waxing Gibbous
Dec 17
Full
Dec 25
Last Quarter
Jan 1
New
Jan 7
First Quarter

Hourly Weather History & Observations

Time (EST) Temp. Windchill Dew Point Humidity Pressure Visibility Wind Dir Wind Speed Gust Speed Precip Events Conditions
12:58 AM 23.2 °F 11.4 °F 12.2 °F 63% 30.00 in 10.0 mi WSW 12.7 mph - N/A   Clear
1:58 AM 22.8 °F 10.9 °F 11.8 °F 63% 30.02 in 10.0 mi West 12.7 mph - N/A   Clear
2:58 AM 22.6 °F 11.3 °F 12.4 °F 65% 30.04 in 10.0 mi WSW 11.5 mph - N/A   Clear
3:58 AM 21.9 °F 12.5 °F 12.9 °F 68% 30.07 in 10.0 mi WSW 8.1 mph - N/A   Clear
4:58 AM 21.2 °F 13.6 °F 13.6 °F 73% 30.09 in 10.0 mi SW 5.8 mph - N/A   Clear
5:58 AM 19.8 °F 11.9 °F 13.5 °F 77% 30.12 in 10.0 mi SSW 5.8 mph - N/A   Clear
6:58 AM 19.0 °F 13.9 °F 13.5 °F 79% 30.14 in 10.0 mi SSW 3.5 mph - N/A   Clear
7:58 AM 21.6 °F 12.1 °F 13.1 °F 70% 30.16 in 10.0 mi SW 8.1 mph - N/A   Partly Cloudy
9:58 AM 27.5 °F 17.4 °F 12.2 °F 53% 30.18 in 10.0 mi SW 11.5 mph 18.4 mph N/A   Partly Cloudy
10:58 AM 29.5 °F 19.3 °F 12.9 °F 50% 30.15 in 10.0 mi WSW 12.7 mph 23.0 mph N/A   Partly Cloudy
11:58 AM 30.7 °F 20.9 °F 13.1 °F 48% 30.12 in 10.0 mi WSW 12.7 mph - N/A   Partly Cloudy
12:58 PM 31.3 °F 21.6 °F 12.7 °F 46% 30.10 in 10.0 mi WSW 12.7 mph - N/A   Mostly Cloudy
2:58 PM 31.8 °F 21.0 °F 10.4 °F 41% 30.09 in 10.0 mi WSW 16.1 mph - N/A   Mostly Cloudy
3:58 PM 29.8 °F 20.3 °F 10.9 °F 45% 30.09 in 10.0 mi West 11.5 mph - N/A   Scattered Clouds
4:58 PM 28.4 °F 19.7 °F 11.7 °F 50% 30.10 in 10.0 mi SW 9.2 mph - N/A   Partly Cloudy
5:58 PM 27.5 °F 16.8 °F 12.2 °F 53% 30.10 in 10.0 mi SW 12.7 mph - N/A   Scattered Clouds
7:58 PM 25.9 °F 15.3 °F 16.3 °F 67% 30.11 in 10.0 mi SW 11.5 mph - N/A   Partly Cloudy
8:58 PM 24.8 °F 14.6 °F 16.0 °F 69% 30.11 in 10.0 mi SW 10.4 mph - N/A   Partly Cloudy
9:58 PM 24.3 °F 13.3 °F 16.2 °F 71% 30.12 in 10.0 mi SW 11.5 mph - N/A   Partly Cloudy
11:58 PM 24.3 °F 13.9 °F 15.8 °F 70% 30.12 in 10.0 mi West 10.4 mph - N/A   Scattered Clouds